Location: Crocus Hill
(18.2167°N, 63.0667°W)
Time: 01:42:10
(UTC+00:00)

ATLAS 3B R/B - Pass Details

Date: 26 January 2020
Orbit: 1027 x 1168 km, 63.8° (Epoch: 09 February)

Event Time Altitude Azimuth Distance (km) Brightness Sun altitude
Rises 10:19:48 0° 340° (NNW) 3,853 5.3 -6.9°
Reaches altitude 10° 10:22:26 10° 344° (NNW) 2,916 4.7 -6.3°
Maximum altitude 10:29:18 62° 64° (ENE) 1,228 3.3 -4.7°
Drops below altitude 10° 10:36:22 10° 145° (SE) 3,012 6.0 -3.1°
Sets 10:39:08 0° 148° (SSE) 3,988 6.6 -2.5°
